FENGYUN 1C DEB, 30251

Orbit data source: Space-Track

FENGYUN 1C DEB, 30251 is space debris in SSO originally from a launch on Mon, 10 May 1999 UTC launched from the Taiyaun Space Center, China (TSC). Fengyun 1C debris stems from the Chinese weather satellite Fengyun-1C, which was intentionally destroyed by a Chinese anti-satellite missile in 2007. This event dramatically increased the amount of space debris, with thousands of trackable fragments posing hazards to satellites and human spaceflight. The Fengyun 1C debris cloud has become a focal point in discussions about space sustainability and the need for international regulations to prevent the creation of new debris.

Loading next visibility...
Identifier
30251, 1999-025XL
Orbit
SSO
Country
Flag of CNCN / PRC
Related business
Manufacturer
Unknown
Mission
Spacecraft
Bus & Motor
Unknown
Mass
Unknown
Launch date (UTC)
1999-05-10 (27 years ago)
Launch vehicle
Unknown
Launch site
Taiyaun Space Center, China (TSC)
Object type
Payload
Rocket body
Debris
Shape & HBR
Unknown shape, 0.1 m
Radar Cross Section
Medium (>0.1 m² and <1 m²)

Expand to show TLE details & history
Last TLE update: 15 hours ago

TLE from 15 hours ago
0 FENGYUN 1C DEB
1 30251U 99025XL  26175.14893992  .00000715  00000-0  29265-3 0  9992
2 30251  99.0367  25.8301 0052267 127.9962 355.8676 14.29755495  9059
Epoch: 2026-06-24T03:34Z
TLE epoch observation values (Epoch: 2026-06-24T03:34:28.409Z)
Latitude
55.23408°
Longitude
-106.92527°
Altitude
764.278 km
Speed
7.497 km/s
True Right ascension
14h 36m 00s
True Declination
55° 04' 23"
Sunlit
Object was in daylight at epoch
Visualization orbit readout
Latitude
Unknown
Longitude
Unknown
Altitude
Unknown
Speed
Unknown
Apparent Right ascension
Unknown
Apparent Declination
Unknown
Sunlit
N/A
Visualization observer readout
Local Sidereal Time
05:16:11
Azimuth
Unknown
Elevation
Unknown
Doppler factor
Unknown
Orbital elements
Apogee altitude
827.174 km
Perigee altitude
752.246 km
Semi-major axis
7,167.847 km
Eccentricity
0.00523
Inclination
99.0367°
RAAN
25.8301°
Arg. of periapsis
127.9962°
True anomaly
355.82416°
Mean anomaly
355.8676°
Eccentric anomaly
355.84591°
Mean motion
3.57652 °/min
Orbital period
100.66 mins
BSTAR
0.00029265
Loading maneuver chart data...
Computing Atmospheric mass density...

Documentation

Showing up to 5 results
|